timestamp,wind_dir_avg,wind_spd_avg,wind_spd_max_dir,wind_spd_gust,battery_voltage,lat,long
2022-03-14 00:04:01+00:00,263.0,18.77,268.0,20.82,12.41,47.59359,-54.27349
2022-03-14 00:14:01+00:00,268.0,14.05,275.0,21.56,12.33,47.59359,-54.27349
2022-03-14 00:24:01+00:00,281.0,14.46,276.0,21.57,12.33,47.59359,-54.27349
2022-03-14 00:34:01+00:00,279.0,19.92,284.0,23.15,12.33,47.59359,-54.27349
2022-03-14 00:44:01+00:00,277.0,20.2,282.0,23.04,12.33,47.59359,-54.27349
2022-03-14 00:54:01+00:00,277.0,21.02,282.0,23.38,12.33,47.59359,-54.27349
2022-03-14 01:04:01+00:00,275.0,17.15,279.0,21.51,12.33,47.59359,-54.27349
2022-03-14 01:14:01+00:00,276.0,15.01,278.0,21.37,12.33,47.59359,-54.27349
2022-03-14 01:24:01+00:00,273.0,15.13,266.0,21.23,12.33,47.59359,-54.27349
2022-03-14 01:34:01+00:00,286.0,16.67,283.0,22.81,12.33,47.59359,-54.27349
2022-03-14 01:44:01+00:00,281.0,14.58,281.0,22.44,12.33,47.59359,-54.27349
2022-03-14 01:54:01+00:00,282.0,14.46,280.0,20.35,12.33,47.59359,-54.27349
2022-03-14 02:04:01+00:00,280.0,19.23,271.0,23.3,12.33,47.59359,-54.27349
2022-03-14 04:14:01+00:00,276.0,16.89,282.0,22.48,12.25,47.59359,-54.27349
2022-03-14 04:24:01+00:00,283.0,12.98,286.0,15.75,12.25,47.59359,-54.27349
2022-03-14 04:34:01+00:00,283.0,12.4,284.0,15.3,12.25,47.59359,-54.27349
2022-03-14 04:44:01+00:00,281.0,13.06,281.0,15.76,12.25,47.59359,-54.27349
2022-03-14 04:54:01+00:00,286.0,15.5,287.0,23.61,12.25,47.59359,-54.27349
2022-03-14 05:04:01+00:00,284.0,20.92,285.0,24.4,12.25,47.59359,-54.27349
2022-03-14 05:14:01+00:00,298.0,14.88,287.0,22.53,12.25,47.59359,-54.27349
2022-03-14 05:24:01+00:00,283.0,12.76,277.0,14.76,12.25,47.59359,-54.27349
2022-03-14 05:34:01+00:00,282.0,12.92,278.0,16.19,12.25,47.59359,-54.27349
2022-03-14 05:44:01+00:00,286.0,11.97,290.0,13.72,12.25,47.59359,-54.27349
2022-03-14 05:54:01+00:00,276.0,11.98,277.0,15.64,12.25,47.59359,-54.27349
2022-03-14 06:04:01+00:00,285.0,12.47,286.0,15.57,12.25,47.59359,-54.27349
2022-03-14 06:14:01+00:00,275.0,12.23,273.0,15.46,12.17,47.59359,-54.27349
2022-03-14 06:24:01+00:00,284.0,11.42,282.0,14.11,12.17,47.59359,-54.27349
2022-03-14 06:34:01+00:00,284.0,12.72,284.0,18.64,12.17,47.59359,-54.27349
2022-03-14 06:44:01+00:00,278.0,12.81,281.0,14.65,12.17,47.59359,-54.27349
2022-03-14 06:54:01+00:00,274.0,11.83,274.0,14.39,12.17,47.59359,-54.27349
2022-03-14 07:04:01+00:00,281.0,13.05,283.0,15.0,12.17,47.59359,-54.27349
2022-03-14 07:14:01+00:00,276.0,12.02,272.0,14.24,12.09,47.59359,-54.27349
2022-03-14 07:24:01+00:00,274.0,11.91,279.0,14.79,12.09,47.59359,-54.27349
2022-03-14 07:34:01+00:00,282.0,12.71,283.0,14.96,12.09,47.59359,-54.27349
2022-03-14 07:44:01+00:00,271.0,12.76,272.0,14.31,12.09,47.59359,-54.27349
2022-03-14 07:54:01+00:00,277.0,12.48,271.0,16.86,12.09,47.59359,-54.27349
2022-03-14 08:04:01+00:00,274.0,12.24,284.0,14.53,12.09,47.59359,-54.27349
2022-03-14 08:14:00+00:00,276.0,12.52,279.0,15.07,12.09,47.59359,-54.27349
2022-03-14 08:24:00+00:00,276.0,13.18,281.0,14.68,12.09,47.59359,-54.27349
2022-03-14 08:34:00+00:00,280.0,13.54,282.0,15.05,12.09,47.59359,-54.27349
2022-03-14 08:44:00+00:00,274.0,13.09,273.0,14.31,12.09,47.59359,-54.27349
2022-03-14 08:54:00+00:00,280.0,13.76,283.0,15.13,12.09,47.59359,-54.27349
2022-03-14 09:04:00+00:00,266.0,9.35,263.0,13.3,12.09,47.59359,-54.27349
2022-03-14 09:14:01+00:00,257.0,7.47,261.0,9.98,12.17,47.59359,-54.27349
2022-03-14 09:24:01+00:00,259.0,7.06,268.0,11.5,12.17,47.59359,-54.27349
2022-03-14 09:34:01+00:00,263.0,5.78,275.0,9.73,12.17,47.59359,-54.27349
2022-03-14 09:44:01+00:00,274.0,7.88,269.0,12.3,12.17,47.59359,-54.27349
2022-03-14 09:54:01+00:00,281.0,10.3,284.0,12.77,12.17,47.59359,-54.27349
2022-03-14 10:04:01+00:00,270.0,6.33,275.0,7.92,12.17,47.59359,-54.27349
2022-03-14 10:14:00+00:00,261.0,6.15,261.0,10.19,12.09,47.59359,-54.27349
2022-03-14 10:24:00+00:00,266.0,12.99,266.0,14.38,12.09,47.59359,-54.27349
2022-03-14 10:34:00+00:00,253.0,13.0,255.0,14.78,12.09,47.59359,-54.27349
2022-03-14 10:44:00+00:00,264.0,11.38,264.0,14.14,12.09,47.59359,-54.27349
2022-03-14 10:54:00+00:00,282.0,12.51,291.0,14.06,12.09,47.59359,-54.27349
2022-03-14 11:04:00+00:00,260.0,9.45,261.0,14.05,12.09,47.59359,-54.27349
2022-03-14 11:14:00+00:00,282.0,9.49,282.0,12.74,12.09,47.59359,-54.27349
2022-03-14 11:24:00+00:00,262.0,11.37,264.0,14.82,12.09,47.59359,-54.27349
2022-03-14 11:34:00+00:00,261.0,11.48,264.0,14.22,12.09,47.59359,-54.27349
2022-03-14 11:44:00+00:00,264.0,11.4,266.0,14.09,12.09,47.59359,-54.27349
2022-03-14 11:54:00+00:00,258.0,11.77,255.0,14.44,12.09,47.59359,-54.27349
2022-03-14 12:04:00+00:00,256.0,12.11,250.0,13.07,12.09,47.59359,-54.27349
2022-03-14 12:14:00+00:00,253.0,12.55,253.0,14.75,12.89,47.59359,-54.27349
2022-03-14 12:24:00+00:00,263.0,12.67,265.0,19.8,12.89,47.59359,-54.27349
2022-03-14 12:34:00+00:00,262.0,17.42,262.0,21.5,12.89,47.59359,-54.27349
2022-03-14 12:44:00+00:00,257.0,12.65,258.0,16.74,12.89,47.59359,-54.27349
2022-03-14 12:54:00+00:00,262.0,12.24,265.0,15.74,12.89,47.59359,-54.27349
2022-03-14 13:04:00+00:00,277.0,14.16,276.0,20.52,12.89,47.59359,-54.27349
2022-03-14 13:14:00+00:00,265.0,13.09,273.0,17.15,13.6,47.59359,-54.27349
2022-03-14 13:24:00+00:00,257.0,14.32,263.0,21.0,13.6,47.59359,-54.27349
2022-03-14 13:34:00+00:00,257.0,12.6,258.0,16.3,13.6,47.59359,-54.27349
2022-03-14 13:44:00+00:00,264.0,12.87,256.0,14.55,13.6,47.59359,-54.27349
2022-03-14 13:54:00+00:00,254.0,13.31,249.0,15.04,13.6,47.59359,-54.27349
2022-03-14 14:04:00+00:00,264.0,13.16,266.0,19.42,13.6,47.59359,-54.27349
2022-03-14 14:14:01+00:00,259.0,12.69,257.0,16.86,13.76,47.59359,-54.27349
2022-03-14 14:24:01+00:00,251.0,11.65,253.0,15.4,13.76,47.59359,-54.27349
2022-03-14 14:34:01+00:00,256.0,12.36,254.0,15.98,13.76,47.59359,-54.27349
2022-03-14 14:44:01+00:00,260.0,13.23,254.0,17.28,13.76,47.59359,-54.27349
2022-03-14 14:54:01+00:00,262.0,12.01,261.0,14.83,13.76,47.59359,-54.27349
2022-03-14 15:04:01+00:00,253.0,12.34,257.0,15.61,13.76,47.59359,-54.27349
2022-03-14 15:14:00+00:00,256.0,12.22,264.0,15.39,13.76,47.59359,-54.27349
2022-03-14 15:24:00+00:00,261.0,11.94,264.0,15.16,13.76,47.59359,-54.27349
2022-03-14 15:34:00+00:00,263.0,14.59,265.0,21.15,13.76,47.59359,-54.27349
2022-03-14 15:44:00+00:00,271.0,11.76,273.0,14.14,13.76,47.59359,-54.27349
2022-03-14 15:54:00+00:00,268.0,12.0,272.0,15.76,13.76,47.59359,-54.27349
2022-03-14 16:04:00+00:00,270.0,16.62,275.0,22.17,13.76,47.59359,-54.27349
2022-03-14 16:14:01+00:00,266.0,12.82,264.0,14.67,13.92,47.59359,-54.27349
2022-03-14 16:24:01+00:00,266.0,13.54,269.0,19.3,13.92,47.59359,-54.27349
2022-03-14 16:34:01+00:00,263.0,11.72,267.0,14.42,13.92,47.59359,-54.27349
2022-03-14 16:44:01+00:00,266.0,12.55,264.0,15.12,13.92,47.59359,-54.27349
2022-03-14 16:54:01+00:00,253.0,11.92,256.0,14.57,13.92,47.59359,-54.27349
2022-03-14 17:04:01+00:00,274.0,14.63,280.0,22.55,13.92,47.59359,-54.27349
2022-03-14 17:14:01+00:00,267.0,11.97,267.0,13.37,13.53,47.59359,-54.27349
2022-03-14 17:24:01+00:00,260.0,12.18,263.0,13.75,13.53,47.59359,-54.27349
2022-03-14 17:34:01+00:00,269.0,17.48,276.0,22.28,13.53,47.59359,-54.27349
2022-03-14 17:44:01+00:00,276.0,11.37,281.0,14.7,13.53,47.59359,-54.27349
2022-03-14 17:54:01+00:00,276.0,12.25,277.0,14.82,13.53,47.59359,-54.27349
2022-03-14 18:04:01+00:00,261.0,12.14,262.0,15.4,13.53,47.59359,-54.27349
2022-03-14 19:14:01+00:00,267.0,12.15,261.0,14.42,14.32,47.59359,-54.27349
2022-03-14 19:24:01+00:00,263.0,12.61,261.0,14.71,14.32,47.59359,-54.27349
2022-03-14 19:34:01+00:00,265.0,11.91,264.0,13.38,14.32,47.59359,-54.27349
2022-03-14 19:44:01+00:00,259.0,12.66,260.0,15.52,14.32,47.59359,-54.27349
2022-03-14 19:54:01+00:00,261.0,13.06,268.0,18.34,14.32,47.59359,-54.27349
2022-03-14 20:04:01+00:00,269.0,12.46,279.0,15.56,14.32,47.59359,-54.27349
2022-03-14 20:14:01+00:00,258.0,12.56,258.0,14.34,13.6,47.59359,-54.27349
2022-03-14 20:24:01+00:00,261.0,12.73,265.0,14.47,13.6,47.59359,-54.27349
2022-03-14 20:34:01+00:00,261.0,13.64,258.0,14.76,13.6,47.59359,-54.27349
2022-03-14 20:44:01+00:00,261.0,12.02,264.0,14.62,13.6,47.59359,-54.27349
2022-03-14 20:54:01+00:00,259.0,12.95,261.0,14.57,13.6,47.59359,-54.27349
2022-03-14 21:04:01+00:00,258.0,12.05,258.0,14.83,13.6,47.59359,-54.27349
2022-03-14 21:14:01+00:00,262.0,12.93,263.0,14.65,13.37,47.59359,-54.27349
2022-03-14 21:24:01+00:00,267.0,13.12,274.0,15.73,13.37,47.59359,-54.27349
2022-03-14 21:34:01+00:00,260.0,12.75,262.0,14.53,13.37,47.59359,-54.27349
2022-03-14 21:44:01+00:00,259.0,12.68,259.0,14.53,13.37,47.59359,-54.27349
2022-03-14 21:54:01+00:00,268.0,12.3,273.0,14.37,13.37,47.59359,-54.27349
2022-03-14 22:04:01+00:00,264.0,12.18,272.0,13.82,13.37,47.59359,-54.27349
2022-03-14 22:14:01+00:00,264.0,12.77,263.0,14.39,12.73,47.59359,-54.27349
2022-03-14 22:24:01+00:00,264.0,11.99,266.0,14.46,12.73,47.59359,-54.27349
2022-03-14 22:34:01+00:00,260.0,12.18,256.0,14.72,12.73,47.59359,-54.27349
2022-03-14 22:44:01+00:00,259.0,13.18,259.0,14.7,12.73,47.59359,-54.27349
2022-03-14 22:54:01+00:00,261.0,12.91,256.0,14.55,12.73,47.59359,-54.27349
2022-03-14 23:04:01+00:00,253.0,13.72,255.0,14.78,12.73,47.59359,-54.27349
2022-03-14 23:14:00+00:00,259.0,10.29,259.0,13.58,12.41,47.59359,-54.27349
2022-03-14 23:24:00+00:00,264.0,7.18,265.0,10.59,12.41,47.59359,-54.27349
2022-03-14 23:34:00+00:00,252.0,8.15,249.0,12.62,12.41,47.59359,-54.27349
2022-03-14 23:44:00+00:00,253.0,7.81,257.0,9.83,12.41,47.59359,-54.27349
2022-03-14 23:54:00+00:00,262.0,8.49,262.0,13.05,12.41,47.59359,-54.27349
